Location: Dodgeville, WI 53533, USA
(43.0344°N, 90.0900°W)
Time: 04:50:05
(UTC-06:00)

X-37B - Pass Details

Date: 27 January 2021
Orbit: 383 x 391 km, 45.0° (Epoch: 27 February)

Event Time Altitude Azimuth Distance (km) Brightness Sun altitude
Rises 18:51:11 0° 285° (WNW) 2,274 5.7 -19.1°
Reaches altitude 10° 18:53:16 10° 285° (WNW) 1,419 4.4 -19.5°
Enters shadow 18:56:19 79° 262° (W) 400 0.6 -20.0°
